Voltar ao catálogo

ONEWEB-0719

AtivoComunicaçõesPO
NORAD 55179·PAYLOAD·🇬🇧 United Kingdom

Lançado Jan 10, 2023 de Cape Canaveral Space Force Station

Loading…

Próximas Passagens (próximas 24 horas)

TLE

AtualizadoSource: CelesTrak SupGP

Época: Sep 14, 2026, 19:38 UTC

1 55179C 23004AR  26257.81858056 -.00000551  00000+0 -14199-2 0  2574
2 55179  87.9210 348.0448 0002060 100.6042  11.5317 13.17650547    16

Acompanhe ONEWEB-0719 em tempo real com AllMySat

Download on the App Store